Roanoke Regional Airport Airport (ROA)

 

Airport Diagram
Current Weather/Forecast (VFR Conditions)
METAR KROA 070854Z 05005KT 10SM CLR 20/18 A2996 RMK AO2 SLP131 T02000178 55003
TAF KROA 070529Z 0706/0806 01004KT P6SM SCT150 FM071500 34008KT P6SM FEW250 FM080200 01004KT P6SM FEW180

All Charts
General
Chart Name Download
AIRPORT DIAGRAM
TAKEOFF MINIMUMS
ALTERNATE MINIMUMS
HOT SPOT

Departures
Chart Name Download
BUFIY THREE (RNAV)
DIXXY EIGHT
HOKEE THREE
MONAT THREE (RNAV)
SCUTA THREE (RNAV)

Approaches
Chart Name Download
ILS OR LOC RWY 34
RNAV (RNP) Z RWY 06
RNAV (RNP) Z RWY 24
RNAV (RNP) Z RWY 34
RNAV (GPS) Y RWY 06
RNAV (GPS) Y RWY 24
RNAV (GPS) Y RWY 34
LDA Y RWY 06
LDA Z RWY 06
VOR/DME-A


Inbound Traffic (Arrivals)

No inbound traffic.


Outbound Traffic (Departures)

No outbound traffic.